Wind_Speed
16 17 18 18 16 16 16 15 13 9 6 5 4 5 6 8 8 8 9 10 11 14 17 19 22 24 22 19 16 16 19 23 23 21 19 17 16 16 16 16 15 15 12 12 14 14 14 15 16 17 19 20 20 19 19 20 21 22 22 23 22 22 23 24 24 25 25 24 24 24 23 23 23 24 24 24 25 26 26 26 26 27 28 29 29 29
17 18 18 16 14 15 15 15 15 14 13 12 9 8 9 9 9 8 9 10 11 15 18 20 24 25 23 21 18 17 19 20 19 19 18 16 15 15 14 12 12 13 13 14 15 16 16 15 16 17 19 19 19 19 19 19 20 21 22 22 22 23 24 24 25 26 26 26 26 25 25 25 26 26 26 26 27 27 28 28 29 29 29 30 30 31
17 18 16 14 15 15 13 14 16 16 17 16 15 13 11 10 11 10 11 13 15 18 20 22 26 27 24 23 22 18 18 17 16 17 17 15 15 15 14 13 13 14 15 16 16 17 18 17 16 17 17 18 18 18 19 19 19 20 21 22 22 23 24 24 25 25 26 26 27 27 27 27 27 28 28 28 28 27 28 29 30 31 31 31 30 31
17 15 15 16 16 16 14 13 14 15 17 17 18 17 15 14 13 11 12 14 16 17 20 22 27 29 25 24 24 19 18 19 17 17 16 15 15 14 14 15 16 16 16 16 16 16 17 17 16 16 16 16 16 17 18 19 19 19 19 20 21 22 23 24 24 24 25 26 26 27 27 28 28 28 28 28 28 27 27 28 29 30 31 31 31 32
15 12 14 17 17 16 16 16 15 15 16 17 18 18 17 16 14 13 13 14 17 17 20 23 27 30 28 25 23 18 16 19 18 17 16 15 15 14 14 15 15 17 18 17 17 17 17 16 15 16 16 16 16 17 18 18 18 17 17 18 19 19 20 21 22 22 23 24 24 25 25 26 26 27 27 27 27 27 28 28 29 30 31 32 32 33
16 14 13 15 16 17 18 18 18 17 17 17 17 17 15 13 12 13 13 15 17 16 18 18 15 20 28 25 22 19 16 17 17 16 16 15 15 14 13 13 14 17 19 19 19 18 17 16 15 15 16 16 17 17 18 18 16 14 14 15 16 16 17 18 19 20 20 21 21 22 23 23 24 25 25 26 27 28 29 29 30 30 31 33 34 34
16 15 13 13 14 16 18 18 18 18 18 18 17 15 13 11 12 14 14 15 14 12 15 14 8 15 31 30 24 22 20 18 18 16 16 17 17 15 13 14 15 16 19 20 20 18 17 16 15 15 15 16 16 17 17 16 14 12 12 13 14 15 15 16 16 17 17 18 18 19 20 21 22 23 23 24 26 28 29 30 30 31 32 33 35 36
16 16 15 15 15 15 16 14 15 16 16 16 14 12 10 9 10 10 11 12 13 15 18 18 13 14 28 32 26 25 24 20 19 18 18 20 19 17 15 16 17 17 17 18 18 17 17 15 15 15 15 16 16 15 15 14 12 11 11 12 14 14 15 16 17 17 17 17 17 18 19 20 21 22 22 24 26 27 29 30 30 30 32 33 35 36
17 17 18 18 17 16 15 12 11 13 13 13 12 11 10 10 11 10 10 11 13 16 16 17 14 9 21 34 31 29 30 24 20 20 20 21 20 18 16 16 15 11 8 10 13 15 16 15 15 16 16 17 16 14 14 13 12 11 11 12 13 14 15 16 18 18 18 18 18 19 19 20 21 22 22 24 25 26 28 29 29 29 30 32 34 35
16 17 18 19 20 19 17 15 14 13 12 12 11 10 11 11 11 9 9 11 11 13 16 17 16 10 16 34 35 30 31 28 24 23 22 20 18 14 12 12 10 5 6 12 13 13 15 16 16 16 17 17 15 14 14 14 13 12 13 13 14 15 14 14 15 17 18 18 19 19 19 19 20 21 22 23 24 25 27 28 28 29 29 31 33 34
17 16 17 18 19 19 18 17 16 15 15 14 11 11 10 10 10 9 10 11 8 9 13 15 18 14 11 24 34 31 27 25 22 19 18 18 16 12 9 9 10 8 15 18 13 11 13 15 17 17 17 16 15 16 16 16 15 14 14 15 15 16 15 14 14 14 16 17 18 19 19 19 20 20 21 22 22 23 25 26 28 29 29 30 32 33
22 19 19 19 19 19 18 17 16 15 16 15 12 10 9 7 7 8 9 8 5 5 6 7 13 16 14 17 25 25 22 19 17 16 18 18 16 14 10 10 13 17 23 19 12 13 15 15 16 16 16 15 15 17 19 20 19 17 16 16 17 17 16 16 15 15 15 16 18 18 19 19 20 20 20 20 20 21 23 24 26 27 28 30 31 32
25 25 23 22 21 21 18 16 15 15 16 14 12 11 8 3 2 4 5 3 7 9 7 6 8 16 27 29 28 28 26 22 18 18 18 16 15 15 13 14 18 21 20 16 15 19 20 18 16 16 17 16 17 19 22 24 22 19 18 18 18 18 18 18 17 17 16 17 18 19 19 20 20 21 21 21 22 23 24 25 26 26 27 28 30 32
21 23 27 27 24 23 21 19 17 16 16 16 17 15 11 5 2 3 4 1 7 10 8 9 9 16 28 28 21 18 18 19 20 20 20 19 17 15 13 13 14 13 13 16 21 24 22 21 18 17 18 19 21 23 24 24 22 20 20 19 19 19 19 19 19 19 19 18 19 19 20 21 21 21 21 22 23 24 26 28 29 29 28 28 28 30
19 16 23 27 25 25 25 24 21 17 16 17 18 18 18 15 8 4 3 3 5 4 6 10 9 11 14 9 2 2 4 9 10 9 10 11 11 10 8 9 12 15 19 23 26 24 22 20 17 16 18 20 23 23 22 21 20 20 19 18 18 18 20 21 21 21 21 21 20 21 21 21 21 20 20 20 21 23 25 27 29 31 31 31 30 29
20 17 17 17 19 22 22 22 23 21 19 17 17 20 23 23 18 8 5 7 4 3 4 11 14 18 20 17 14 8 8 11 13 15 16 16 17 15 14 17 20 22 22 22 20 18 18 17 15 16 18 20 22 23 24 23 20 18 17 18 19 19 21 22 21 21 22 22 22 22 23 22 22 21 20 21 22 24 26 28 29 30 31 33 32 31
17 16 16 14 15 18 17 17 20 23 21 17 21 28 26 21 20 14 9 9 6 5 9 13 21 29 29 29 29 24 23 22 19 19 18 17 18 16 15 18 18 15 13 12 12 13 13 14 15 17 19 21 23 24 24 22 19 17 17 19 21 21 22 22 22 21 22 23 24 25 25 24 24 23 23 24 26 28 30 31 31 31 31 32 33 33
18 14 16 19 18 18 18 17 19 23 24 21 23 27 24 19 18 16 8 3 2 4 8 14 23 28 24 21 18 13 12 12 7 6 9 13 16 15 14 14 11 9 9 9 10 13 15 16 17 18 19 21 22 21 20 18 17 16 17 20 23 23 23 24 23 22 22 25 28 28 28 27 27 27 28 29 30 31 32 32 33 33 32 32 32 33
21 16 15 18 20 19 19 20 21 24 27 27 24 21 19 15 13 16 10 2 2 2 6 14 20 27 33 30 22 14 12 13 13 16 18 16 15 15 15 12 9 8 9 12 17 21 21 19 17 17 19 20 21 20 19 18 17 16 18 21 23 23 24 25 24 22 23 26 29 31 31 31 31 31 32 33 34 34 33 33 33 33 33 33 33 33
22 18 15 18 20 19 20 24 28 29 28 28 26 21 21 17 12 17 18 9 4 3 4 10 11 23 39 38 30 26 22 21 20 17 13 13 16 16 15 16 14 9 13 21 24 22 18 17 18 21 22 22 23 23 21 20 20 20 21 23 24 23 24 24 23 23 25 27 30 32 33 34 35 36 37 38 37 36 35 35 35 35 34 34 33 33
24 20 17 17 20 22 25 28 29 29 27 28 29 26 26 24 16 15 19 19 13 5 3 4 7 26 41 31 20 14 9 9 7 8 14 17 18 17 18 18 14 10 20 30 29 25 23 22 24 26 25 25 26 27 26 25 24 24 25 25 26 25 24 23 24 25 28 29 31 32 34 36 36 38 40 41 41 39 38 38 38 38 38 36 35 34
27 25 20 17 20 25 28 26 24 25 25 27 30 29 30 30 24 14 10 19 23 14 9 4 7 34 47 32 21 14 8 8 4 11 18 18 17 17 18 16 13 18 29 34 33 31 29 28 27 25 24 25 27 28 29 29 29 28 28 27 28 28 25 24 26 29 30 30 31 32 34 35 35 37 40 43 44 43 42 42 41 42 41 40 38 35
28 27 25 23 25 26 24 22 23 24 26 28 30 32 32 32 34 25 12 14 21 21 23 13 10 39 51 36 28 23 14 11 7 11 15 16 15 17 17 20 25 33 37 35 34 32 31 30 27 24 24 25 27 29 29 31 31 31 30 27 29 29 27 27 29 32 33 32 32 33 33 33 33 35 39 43 45 46 45 45 45 44 44 43 41 38
26 26 26 24 24 25 23 23 25 26 27 31 33 34 34 32 35 33 24 21 17 19 25 13 9 39 52 38 31 25 17 17 15 15 18 20 24 27 30 35 38 38 35 31 31 32 31 30 26 23 24 24 27 29 30 30 30 31 31 30 30 29 28 30 33 35 36 36 36 36 35 36 36 37 40 43 45 46 46 47 47 46 46 45 44 40
25 25 25 17 9 11 15 17 22 27 29 32 33 33 35 34 33 31 30 26 18 20 26 14 12 42 53 40 37 33 27 28 28 30 34 36 37 38 38 37 34 31 29 27 29 31 32 30 27 26 27 26 28 30 30 30 29 29 30 31 32 31 30 33 35 37 38 39 41 41 40 41 41 43 44 46 47 47 47 48 48 48 47 47 46 43
24 25 27 21 11 9 10 10 18 27 30 32 34 33 33 34 32 31 30 26 22 28 34 25 25 47 55 47 46 44 41 40 39 41 43 42 41 40 36 31 28 28 29 30 32 34 35 34 34 34 35 35 34 34 34 34 32 31 30 32 35 35 35 36 37 38 40 41 43 44 45 46 45 47 48 49 50 50 49 49 49 49 48 48 48 46
26 25 27 28 26 25 20 14 16 23 25 29 33 33 33 33 32 32 30 30 33 34 37 38 41 49 56 55 53 50 48 46 46 46 44 43 43 42 37 34 33 34 36 37 39 39 37 35 33 34 34 35 35 35 35 35 33 32 30 32 35 37 39 39 39 40 41 43 44 45 47 49 49 50 51 52 53 52 51 51 51 50 49 49 50 48
25 26 27 29 31 31 24 14 13 17 18 22 27 29 31 31 30 32 33 37 38 30 31 43 46 45 54 58 54 51 49 46 47 47 46 45 45 43 42 42 42 42 42 41 38 34 31 29 29 29 30 32 32 32 33 33 32 31 29 31 34 37 39 40 41 42 43 45 46 46 47 49 52 53 53 54 55 54 53 52 52 52 50 50 51 50
23 24 27 28 28 30 26 18 17 16 15 17 19 20 22 23 26 32 36 41 41 34 36 46 44 42 51 56 54 52 50 47 48 49 48 47 45 45 45 45 45 44 42 35 28 25 25 27 29 30 29 29 28 29 29 30 31 31 31 32 34 37 39 40 42 44 46 47 48 48 48 51 53 54 56 57 56 55 55 53 52 52 51 51 52 50
26 26 28 28 29 31 30 27 26 24 23 22 21 19 18 18 22 28 34 38 39 38 43 47 45 47 52 52 53 53 50 48 48 47 47 48 47 46 43 39 36 33 28 24 23 26 28 29 30 29 27 25 25 27 28 29 30 31 33 34 36 38 40 43 46 48 48 49 49 48 49 52 54 55 57 58 56 55 54 52 52 52 52 52 52 48
31 31 31 31 32 35 37 37 36 36 36 37 35 33 31 29 29 31 32 33 33 35 41 42 44 50 52 48 49 49 48 48 46 45 46 45 42 39 36 32 28 24 23 26 30 31 30 31 30 26 24 24 25 27 28 29 29 31 33 34 36 38 41 44 47 49 49 50 48 47 47 50 53 55 57 57 55 54 52 51 51 52 53 53 51 47
31 31 32 30 28 34 42 40 39 40 38 37 40 43 44 44 43 41 39 37 35 36 38 38 41 47 49 46 45 47 49 49 45 42 40 36 34 35 35 34 32 30 31 34 35 33 30 30 27 24 23 25 26 26 27 28 29 29 30 32 34 36 38 41 44 46 47 48 48 48 49 50 53 56 56 54 51 50 49 49 51 53 54 53 50 47
31 31 33 30 25 32 41 36 32 29 21 25 40 48 47 46 46 47 47 47 46 46 44 43 46 50 50 48 48 49 47 43 38 36 35 35 38 39 38 37 35 34 35 38 39 37 34 32 29 27 28 27 27 27 28 28 29 30 30 31 33 34 36 37 39 41 44 46 48 50 51 52 54 55 53 50 48 48 49 50 52 54 54 52 49 47
30 30 32 30 26 30 33 27 21 14 11 25 45 48 45 45 44 44 46 46 47 48 48 47 48 49 48 47 47 45 41 38 39 40 41 42 43 41 39 40 40 39 40 41 43 42 39 37 35 33 32 32 31 30 30 31 32 32 33 34 35 36 37 37 37 38 39 42 44 47 49 50 52 51 50 49 49 51 51 52 54 54 52 49 48 46
31 31 30 28 27 28 27 18 10 8 19 38 45 41 42 45 42 41 43 43 42 41 42 43 44 44 43 42 40 40 42 44 45 46 45 43 41 42 43 45 45 45 44 43 42 41 40 39 38 37 36 36 35 34 34 34 35 35 36 36 37 38 40 40 40 39 38 37 40 43 46 47 49 50 50 51 53 53 53 53 53 51 48 47 47 46
29 29 30 30 29 25 20 15 11 10 20 32 34 36 39 38 36 37 38 39 37 32 30 32 33 34 34 34 35 38 42 46 47 46 45 42 42 43 46 47 45 44 44 43 42 42 41 39 39 39 39 38 38 38 39 39 38 39 39 39 39 40 41 42 42 42 40 38 37 39 42 44 46 47 49 51 52 52 52 50 49 47 46 46 46 45
28 28 29 28 25 22 18 19 20 19 22 29 34 35 33 29 28 26 26 29 29 24 24 27 27 28 30 32 35 39 41 45 46 45 43 43 43 44 45 46 44 42 43 43 44 42 40 38 37 39 40 42 42 42 42 42 42 42 42 42 42 42 42 44 44 43 42 40 37 37 39 41 43 44 45 46 47 47 47 46 46 45 45 45 45 45
33 32 31 26 22 21 20 18 14 11 18 34 42 37 32 31 26 22 23 28 29 28 29 30 29 30 33 34 36 39 40 41 43 43 41 41 42 43 44 44 44 44 44 44 43 40 38 38 40 41 43 45 45 44 44 44 44 45 44 43 43 43 43 43 43 42 43 42 40 39 38 40 41 42 42 43 43 43 44 44 44 43 43 43 43 43
35 34 34 30 25 24 22 17 12 11 21 38 42 36 34 32 23 16 18 24 27 28 29 29 28 29 31 32 34 35 36 38 40 41 39 39 40 42 43 44 44 44 43 42 42 42 44 46 47 47 46 46 46 46 45 44 45 46 47 45 44 43 43 41 41 41 41 41 40 39 39 39 40 41 42 42 42 42 42 42 41 41 41 41 41 41
34 34 35 35 34 33 29 22 19 22 32 41 40 34 31 25 15 10 10 13 19 23 25 26 27 26 28 29 30 31 33 35 38 39 39 38 38 38 40 42 43 44 44 45 46 49 52 53 52 50 47 45 45 45 45 46 46 46 46 45 44 43 42 42 42 42 41 41 41 40 39 38 38 39 41 41 41 40 39 38 38 38 38 39 40 40
31 34 35 37 39 38 34 28 26 31 40 45 44 40 35 26 18 18 19 20 21 22 23 25 25 24 25 27 28 30 31 32 35 38 39 38 38 39 41 42 44 45 47 50 52 54 55 54 52 50 48 46 46 45 44 45 45 45 45 44 43 42 42 43 43 42 42 42 42 43 42 40 39 38 39 38 37 35 34 35 36 37 39 40 41 41
30 30 31 36 38 37 38 34 28 32 43 48 46 45 41 31 24 27 31 32 31 32 33 34 34 34 33 33 35 36 37 37 39 41 42 42 43 44 45 45 47 48 49 49 49 49 50 50 49 48 48 47 48 46 45 44 44 45 45 45 43 42 42 43 42 42 41 41 40 41 42 41 40 38 37 35 33 33 34 36 38 39 40 41 41 41
29 27 28 34 36 33 32 27 20 24 39 47 45 42 38 30 26 26 27 27 28 30 32 34 35 36 35 35 36 37 38 39 40 41 44 45 46 46 46 46 47 47 46 45 45 44 45 46 47 46 46 46 47 47 47 47 47 47 47 47 45 44 43 43 42 42 40 39 38 38 39 39 38 37 36 34 34 35 37 38 39 40 40 40 40 40
27 28 29 32 32 28 27 26 24 28 37 39 37 34 29 26 25 23 22 23 25 26 28 29 30 31 31 32 33 34 35 37 38 40 42 44 45 45 46 46 46 45 45 45 44 44 45 45 46 46 45 45 46 47 46 47 47 47 47 46 45 44 44 43 42 42 41 40 39 38 38 38 37 36 35 35 36 37 38 40 41 41 41 40 40 39
29 31 30 30 29 28 29 30 30 31 32 32 32 30 25 22 21 19 19 21 23 25 26 28 29 30 30 32 34 37 39 40 42 44 45 45 46 47 48 49 48 47 47 47 47 46 46 47 48 48 47 46 46 46 45 45 46 46 46 46 45 45 45 44 43 43 42 42 41 40 40 39 38 37 36 36 37 38 40 41 41 41 41 41 39 38
34 33 30 30 30 29 29 29 28 26 26 26 27 26 24 23 23 23 24 25 27 29 30 31 33 33 32 32 35 38 41 43 44 46 47 48 50 50 51 51 51 51 51 51 51 50 50 50 50 50 50 49 48 47 45 44 44 45 45 46 46 46 46 47 46 45 43 43 43 42 41 41 40 39 39 39 39 40 41 41 41 41 41 40 38 37
35 34 31 30 31 31 32 33 34 33 32 31 30 30 30 30 29 28 27 27 29 31 32 33 34 35 34 34 35 37 40 41 43 44 45 47 50 51 52 53 53 54 55 55 55 55 54 54 53 53 52 51 50 50 48 46 45 44 44 44 45 45 45 46 46 45 44 44 44 43 43 43 42 42 42 41 40 40 40 40 39 39 39 37 36 34
31 32 33 31 31 31 32 33 34 35 35 35 35 35 35 33 31 29 28 29 31 34 35 36 36 37 37 37 36 37 38 39 41 43 45 46 48 49 50 51 53 54 54 54 55 55 55 56 55 55 54 53 52 52 51 49 48 46 45 44 43 43 42 42 41 42 43 43 43 44 44 44 44 43 43 41 41 40 39 38 37 37 36 34 32 31
31 31 33 34 34 35 35 33 32 32 31 31 33 36 36 36 35 34 33 33 34 36 38 39 39 39 40 41 40 41 41 40 40 42 44 45 46 46 47 48 49 50 51 51 51 51 51 52 52 53 54 53 52 51 51 51 50 49 47 45 43 42 41 39 37 37 39 41 43 43 44 44 44 43 42 41 40 38 37 35 34 33 31 30 29 28
36 36 36 37 37 38 38 37 35 35 35 34 36 38 38 39 40 40 39 38 38 38 40 41 42 42 41 42 42 43 44 43 42 42 43 44 43 43 44 44 45 46 46 46 46 47 47 48 48 49 50 49 49 49 49 50 50 49 48 46 45 43 41 38 36 37 39 41 43 43 43 43 43 42 40 37 34 32 30 30 29 29 29 28 27 27
38 38 37 38 39 38 37 36 34 34 35 36 36 37 38 40 41 41 41 40 39 39 39 40 42 42 42 41 41 41 43 44 44 44 44 44 44 44 44 44 44 44 43 43 43 43 43 44 45 46 47 46 45 46 46 47 48 47 46 45 43 42 41 39 37 37 39 41 42 43 44 43 41 38 35 32 30 29 29 29 29 29 28 27 26 25
Wind_Direction
211 211 213 213 212 209 203 200 193 194 216 217 203 199 207 223 230 240 253 262 268 271 274 277 277 274 271 267 261 258 260 264 269 273 273 272 271 270 271 274 279 287 293 289 281 277 272 268 267 271 274 277 283 288 289 289 291 291 288 287 285 281 279 280 282 283 285 286 287 286 285 285 281 278 276 276 277 279 280 279 278 276 276 276 277 276
213 213 215 215 215 212 203 197 197 202 215 222 219 202 195 210 225 234 246 259 269 271 273 277 278 274 273 274 270 264 262 263 268 273 274 275 275 276 275 273 275 281 284 285 286 285 281 273 267 267 271 277 285 291 293 293 293 292 292 293 291 288 287 287 286 285 286 287 287 286 285 284 281 279 279 278 278 278 279 279 279 278 277 277 277 276
214 215 213 208 209 209 199 198 204 207 214 222 226 225 218 222 236 242 250 264 272 275 278 282 281 276 273 276 274 271 268 267 269 267 267 271 274 279 284 285 284 283 285 287 287 285 282 278 273 271 273 278 285 291 296 298 297 296 296 297 295 293 293 291 288 288 288 287 285 285 284 284 283 282 282 282 281 281 282 282 282 282 282 282 280 278
216 216 210 204 205 206 200 203 210 214 220 226 231 237 240 243 250 254 258 266 272 280 285 288 286 278 274 275 274 274 271 267 265 261 260 264 269 275 280 283 286 287 289 289 286 283 280 280 280 278 277 279 285 293 299 302 301 300 299 298 296 295 293 291 290 289 288 286 284 284 284 284 285 285 285 285 286 287 287 286 285 284 284 283 281 279
222 217 210 208 208 206 203 206 213 216 222 230 237 242 248 253 255 257 261 267 275 283 286 290 291 283 279 279 278 276 268 265 265 262 262 263 266 272 275 280 286 287 288 287 285 282 280 281 281 279 279 281 289 296 300 302 303 302 299 297 294 293 291 289 289 287 285 285 284 284 283 283 285 285 285 286 288 289 287 285 283 282 282 281 279 277
223 217 212 212 213 214 212 212 215 219 226 234 242 246 250 253 251 252 261 272 281 285 285 293 300 286 281 279 279 279 271 268 267 261 260 261 264 267 270 276 279 281 284 286 285 284 283 282 278 276 276 280 287 293 297 301 303 301 296 293 290 288 288 286 286 285 284 284 284 283 283 283 282 282 282 284 285 284 283 282 281 281 280 280 279 277
222 214 210 208 212 220 222 221 222 224 231 237 245 248 246 246 247 253 262 270 278 280 282 288 294 287 284 277 273 276 273 271 269 263 263 265 267 269 272 279 280 279 281 285 287 287 286 283 276 272 271 274 282 288 294 299 300 296 292 290 289 288 287 286 285 286 286 287 286 285 283 282 281 280 280 281 281 280 280 280 280 280 280 279 279 278
218 209 207 209 213 222 224 224 224 224 229 236 241 243 240 243 246 252 263 265 269 274 278 279 275 282 283 277 275 279 278 273 267 264 268 271 275 279 281 284 286 285 281 281 285 286 285 283 276 272 272 276 281 285 291 295 295 291 290 289 290 290 289 287 288 287 288 288 287 286 285 284 283 282 281 279 278 278 279 279 279 279 279 278 278 278
220 213 212 215 219 225 228 225 223 222 226 233 237 238 236 242 249 256 267 269 275 280 275 272 269 264 271 274 278 283 282 277 271 271 275 277 280 285 287 285 284 285 287 287 287 284 282 281 278 275 276 279 281 284 289 291 291 292 295 298 299 298 294 290 289 289 290 290 289 288 287 287 286 284 283 281 280 281 281 281 280 280 279 279 278 278
224 219 217 222 226 232 235 233 234 232 233 237 237 238 236 240 252 260 268 274 282 278 266 266 267 256 269 275 274 278 282 281 282 286 288 285 286 292 296 285 264 255 309 310 299 287 281 277 276 277 277 278 277 282 289 291 292 295 297 302 306 307 305 299 292 290 291 292 293 292 291 290 289 288 287 287 288 288 287 287 285 284 282 280 279 278
223 221 220 224 230 235 238 239 240 237 237 239 234 230 231 236 252 263 269 275 284 273 263 267 267 258 268 277 274 277 283 284 287 292 294 293 294 303 306 278 251 265 304 309 304 301 295 283 277 276 275 273 275 284 291 291 291 293 295 300 306 309 310 308 302 295 291 290 291 292 292 293 293 293 293 294 294 293 293 293 292 290 287 285 283 280
224 224 225 228 232 235 237 236 235 234 232 232 229 224 225 236 260 267 263 258 255 264 265 266 265 253 242 257 271 276 279 282 288 291 293 295 298 302 298 272 265 283 295 295 296 308 312 304 290 279 273 271 277 289 294 291 287 287 291 297 304 308 310 312 311 304 295 290 288 287 288 290 292 293 295 297 298 297 296 296 295 294 293 291 288 285
227 229 230 232 234 234 233 227 218 219 222 223 222 209 203 221 298 262 247 226 235 249 256 255 253 248 250 259 268 271 272 277 280 281 281 281 283 288 285 277 279 286 286 280 292 305 310 310 297 277 270 270 278 293 296 290 284 283 289 295 300 305 309 311 312 309 302 294 289 287 287 288 290 292 295 298 300 300 300 298 296 295 294 293 291 289
225 230 229 229 231 232 231 224 213 214 219 225 226 214 198 174 109 246 250 276 259 253 243 237 238 252 264 272 276 270 265 265 263 264 265 264 269 279 284 285 284 281 274 278 295 304 306 309 297 273 265 270 282 295 296 289 283 285 291 293 297 302 305 307 310 310 306 299 294 291 289 288 289 291 294 297 300 300 300 299 298 296 295 293 292 290
223 229 230 230 232 235 237 236 234 236 238 240 239 234 226 215 201 208 210 208 254 264 217 211 222 251 263 270 264 171 208 239 253 261 265 270 280 290 296 296 287 281 282 287 294 298 301 305 299 279 270 274 283 291 295 292 288 288 292 295 299 301 300 300 304 307 305 302 299 294 291 288 287 289 292 296 301 303 303 302 301 300 298 296 294 292
227 237 240 234 234 239 242 242 243 240 240 241 235 232 232 229 227 229 232 233 252 329 236 215 231 249 256 258 253 241 237 246 262 274 275 276 281 284 285 288 286 283 285 287 293 300 303 303 299 290 283 281 283 288 294 295 290 288 291 296 302 302 297 295 298 304 305 303 300 295 291 289 287 287 290 296 303 307 309 309 307 305 302 298 295 293
222 233 236 230 229 234 233 234 235 231 231 229 222 225 228 230 231 232 248 257 257 286 262 239 249 259 266 271 269 266 264 262 266 269 265 267 280 286 281 278 276 276 285 295 305 312 315 313 308 303 298 293 292 292 292 290 286 289 293 296 299 299 294 290 292 301 307 305 300 295 292 290 288 289 292 296 301 305 308 311 311 308 305 301 296 292
228 229 230 229 228 227 223 222 223 226 228 222 221 227 227 227 227 223 237 281 239 261 266 250 257 267 271 273 277 271 241 218 204 234 260 278 287 281 264 256 256 268 292 309 318 319 315 313 310 308 306 300 294 290 285 283 285 292 295 296 296 293 289 286 287 297 307 305 300 297 294 292 290 292 294 297 300 303 307 310 311 309 306 303 298 293
230 230 228 226 224 221 218 217 216 219 222 222 226 226 219 218 214 207 212 246 216 230 278 263 261 269 266 259 263 262 234 229 253 273 280 276 262 244 232 232 245 267 294 313 320 319 310 302 302 304 302 295 289 284 282 283 287 291 295 297 296 289 283 283 286 296 303 301 297 295 295 295 294 295 297 299 301 304 307 310 312 311 310 306 301 295
223 227 227 222 220 214 211 213 214 214 214 218 225 224 222 223 209 205 210 214 207 177 259 272 269 267 265 265 272 276 272 276 281 278 262 227 213 217 223 234 244 264 307 318 319 314 300 287 293 299 295 289 286 285 285 286 286 288 292 298 298 289 279 282 289 295 297 295 291 291 294 296 297 298 299 300 303 304 306 307 309 311 313 312 306 299
221 225 228 222 215 210 211 216 220 221 219 221 223 220 222 222 210 213 220 220 222 204 207 258 271 265 266 272 282 281 280 293 280 221 210 205 210 221 224 229 233 263 304 310 307 300 291 286 291 294 289 284 284 285 286 286 286 288 292 298 297 288 278 282 289 292 293 290 285 286 291 294 296 297 297 300 303 305 305 304 304 306 311 314 312 305
222 225 229 224 217 219 223 227 230 234 236 238 237 233 233 229 217 211 216 219 223 225 226 213 276 270 268 271 271 261 257 280 245 189 201 201 205 212 208 212 235 274 293 298 296 293 292 290 292 292 284 279 280 283 285 286 286 288 291 294 293 285 278 281 287 290 291 288 282 281 287 291 292 292 293 296 301 303 304 304 305 305 306 311 314 310
223 226 232 234 235 239 240 236 232 234 237 240 242 242 242 236 225 218 214 221 218 224 239 239 264 268 267 267 267 262 253 247 210 186 201 206 218 231 236 251 273 288 294 296 295 293 293 292 293 291 283 279 278 281 285 286 285 286 287 290 286 280 277 280 285 290 291 288 282 279 281 286 290 291 291 293 296 299 301 302 304 305 305 307 311 311
218 222 228 233 240 244 242 237 233 232 232 233 235 237 235 233 231 229 231 237 225 220 233 228 247 262 263 265 263 258 245 237 236 240 248 256 265 272 278 283 290 295 298 300 299 296 296 298 298 293 285 281 278 278 281 286 289 288 286 284 279 275 277 281 284 288 289 288 284 280 279 281 286 291 294 294 294 296 297 298 300 303 305 305 307 310
214 217 219 218 226 240 238 231 228 226 227 231 234 236 236 236 236 234 234 238 238 234 233 219 236 256 260 264 263 263 264 263 266 272 276 281 284 285 289 292 295 297 298 300 300 300 304 307 308 302 296 292 286 282 282 287 293 292 284 277 272 270 273 278 282 285 286 286 285 283 280 279 283 288 293 295 296 295 295 296 297 300 302 303 305 307
217 216 216 213 202 213 226 220 224 227 227 230 233 234 238 239 235 234 233 229 233 241 237 228 239 255 261 264 265 269 273 274 277 280 282 285 287 290 293 294 295 296 298 300 302 304 307 309 309 307 305 302 298 294 292 292 293 290 283 276 272 270 271 274 278 280 280 281 282 284 282 280 281 286 289 292 294 295 294 295 296 298 300 301 303 305
216 216 218 223 225 230 234 227 228 230 225 229 235 235 238 240 238 238 233 226 233 240 240 240 247 258 264 266 266 269 273 275 279 283 285 285 286 289 292 294 296 297 299 302 304 306 308 308 307 306 304 302 299 296 293 290 286 282 277 275 274 273 273 274 276 277 276 278 280 282 283 282 281 282 285 289 291 293 293 293 294 296 298 300 302 303
211 213 214 223 229 233 235 223 212 214 208 217 231 235 235 237 237 235 232 234 239 237 241 249 250 253 262 267 268 271 274 278 282 284 286 286 286 289 293 296 299 300 301 304 307 309 310 309 306 304 303 302 300 295 290 285 278 271 266 266 268 270 272 274 275 276 276 277 277 279 282 283 281 279 282 286 289 290 291 292 292 293 296 299 301 301
214 216 215 218 226 229 228 218 211 213 206 206 217 226 231 233 233 233 236 242 242 236 243 254 253 253 261 267 268 271 275 279 280 281 284 287 290 294 298 300 300 301 302 307 312 315 314 309 306 306 307 306 302 298 291 284 276 267 260 258 258 261 265 268 270 271 272 272 273 276 280 281 280 279 280 283 286 288 289 289 290 291 294 297 299 299
234 237 232 230 235 236 233 230 232 239 243 240 236 233 235 235 231 232 236 239 241 243 249 255 257 258 260 262 265 271 275 276 278 282 286 290 295 298 302 304 304 304 305 307 312 313 310 308 308 307 306 303 299 296 291 284 277 270 263 257 253 253 255 258 261 263 265 266 268 272 276 277 278 278 279 280 283 285 286 286 288 290 292 296 297 296
243 245 245 244 244 245 245 244 246 250 254 256 255 251 249 245 238 235 236 237 242 246 246 250 256 259 259 260 265 273 277 279 283 287 289 291 295 300 305 309 309 306 303 303 307 308 307 308 307 302 297 295 295 295 294 290 286 280 273 268 262 258 257 257 258 259 260 262 264 267 270 272 274 275 276 278 281 282 283 284 287 289 292 295 295 293
238 238 241 241 240 245 250 249 249 252 254 257 257 253 251 248 245 243 241 241 244 245 246 250 255 259 263 267 270 276 281 284 287 290 290 291 295 300 306 306 302 299 298 301 303 303 302 303 301 293 286 289 292 293 295 295 293 289 285 281 276 272 269 267 267 266 264 263 263 264 265 267 269 271 274 277 278 279 280 282 285 288 292 293 292 290
236 234 236 233 229 241 249 249 248 251 253 254 253 252 250 250 251 252 248 245 246 247 250 253 256 262 269 274 276 279 282 285 289 291 291 293 296 301 304 301 298 297 296 296 296 295 295 296 294 286 281 284 287 287 288 290 291 291 290 288 285 283 281 279 278 276 274 270 267 266 265 266 268 271 273 274 274 275 278 281 284 288 290 291 289 289
235 233 235 233 228 239 248 250 248 242 230 247 253 254 255 254 255 256 255 252 250 250 252 256 260 266 271 273 276 279 281 285 287 287 288 290 294 298 298 294 292 293 294 293 293 294 295 294 291 286 281 283 285 285 286 286 286 288 288 287 287 287 287 287 286 285 281 277 273 272 270 269 270 271 271 270 272 274 277 280 284 287 288 287 287 288
230 229 231 229 229 240 246 243 235 226 240 251 256 257 257 258 258 259 260 261 260 260 261 262 264 267 269 271 275 278 279 280 280 280 282 285 289 290 289 289 290 291 293 294 293 294 294 291 288 283 280 281 284 287 289 289 288 287 286 285 285 285 287 288 289 290 289 284 278 275 275 274 273 272 271 271 273 275 278 280 283 284 284 284 285 286
225 224 225 224 226 233 232 218 214 239 252 256 259 258 257 259 260 260 262 266 267 268 267 265 265 266 267 269 270 270 271 272 274 276 278 280 283 284 285 287 290 291 292 293 294 294 294 292 287 284 282 282 285 289 291 292 291 289 287 286 285 285 286 287 288 290 291 289 284 278 276 275 275 275 274 275 275 277 278 279 280 280 280 281 282 284
232 230 229 225 223 224 222 225 237 251 257 255 254 255 256 258 259 262 269 274 275 274 271 268 265 264 264 263 263 264 266 268 270 273 276 278 279 280 281 284 287 290 290 291 293 294 293 291 289 288 288 288 288 290 290 290 290 289 288 288 288 287 287 287 288 289 289 289 286 282 278 276 275 275 276 276 276 277 277 276 277 277 278 279 280 281
239 239 237 234 231 232 236 242 246 246 251 252 253 255 259 261 264 269 273 273 274 274 272 269 264 262 261 260 261 265 268 271 272 273 275 277 278 278 279 280 282 285 287 288 290 290 289 289 290 291 292 292 292 291 291 290 289 288 288 289 289 288 287 287 287 287 287 286 285 283 281 279 277 276 276 276 276 276 275 275 275 276 277 277 278 278
240 240 241 241 241 240 236 235 237 238 250 256 259 263 266 268 271 270 261 259 263 266 266 263 259 256 256 256 259 264 267 269 273 276 276 276 277 279 280 280 281 282 283 285 287 289 291 294 295 295 294 293 292 291 291 290 289 289 290 291 289 287 286 284 283 283 283 283 282 282 281 280 279 277 276 276 276 275 275 275 275 276 276 276 277 277
235 237 236 236 238 239 236 235 242 247 252 257 261 263 264 264 265 260 245 243 252 258 258 256 254 252 254 256 260 263 263 266 273 278 278 277 278 280 281 282 283 284 285 286 288 291 293 295 297 297 296 293 292 290 290 289 289 289 290 290 288 286 284 282 281 280 280 280 280 280 280 279 279 278 276 275 275 275 275 275 276 277 277 278 279 279
223 228 230 231 234 237 236 237 243 249 253 256 259 261 262 259 253 251 251 248 251 256 258 258 258 257 258 260 261 262 263 265 271 276 277 277 278 279 280 281 282 284 286 288 290 293 294 294 295 295 295 294 294 292 289 287 288 290 291 289 286 284 282 281 281 281 280 280 280 280 279 278 279 278 276 274 274 275 277 279 281 282 282 283 283 282
213 217 221 226 231 234 235 237 243 251 255 256 258 261 263 261 254 253 257 257 256 256 259 263 266 267 267 266 264 265 266 266 268 271 273 276 278 280 281 281 281 283 285 287 289 292 293 292 292 292 292 293 294 293 291 288 288 289 290 289 287 283 281 281 282 282 282 281 280 279 278 277 277 277 274 273 275 278 282 284 285 286 285 285 284 282
216 212 212 219 225 228 231 233 238 249 254 256 258 260 262 261 257 256 258 259 258 257 258 260 263 265 266 266 266 266 267 268 269 271 274 276 279 281 282 283 285 287 289 290 291 292 293 292 292 292 293 293 293 293 293 291 291 291 291 290 287 283 280 281 282 282 283 283 283 281 279 277 276 273 271 273 278 282 286 287 287 286 285 284 282 281
218 216 216 221 224 222 221 224 231 242 250 255 259 259 259 258 256 251 246 245 249 252 251 251 256 262 269 275 276 275 274 275 275 277 279 280 281 282 283 285 287 289 291 293 294 294 294 295 295 295 296 297 296 295 294 294 293 293 294 293 288 283 280 281 283 284 284 284 285 283 280 277 274 272 271 275 281 285 287 287 286 286 284 282 281 279
224 225 226 227 228 227 227 231 238 244 249 253 256 257 255 253 254 256 256 253 256 262 263 263 269 276 281 285 287 286 285 285 285 285 286 286 285 285 287 288 288 290 291 293 295 296 296 296 297 298 299 300 300 299 297 296 296 295 295 293 290 285 281 282 285 286 285 284 284 284 281 276 273 271 272 276 280 283 285 285 285 284 282 280 278 276
232 232 233 234 235 237 239 239 240 243 245 247 250 251 252 258 267 275 277 275 274 277 278 278 280 283 286 288 289 289 289 289 290 289 290 289 289 289 289 290 290 290 291 292 293 295 296 296 296 297 298 300 302 302 300 300 300 300 299 294 289 285 282 282 284 286 285 283 282 282 280 275 270 270 272 274 277 279 280 281 280 279 278 275 274 273
236 235 236 238 239 240 243 243 244 245 247 249 250 251 255 264 271 274 275 276 277 278 280 280 280 282 284 286 287 287 288 289 290 290 290 291 291 291 291 292 292 291 291 292 292 293 294 294 295 295 296 297 299 300 301 302 302 304 304 300 293 286 282 281 281 282 282 280 279 279 277 272 269 269 271 272 274 275 275 274 273 273 272 270 269 268
238 237 235 234 234 235 238 241 243 245 246 247 250 252 255 260 266 270 273 277 278 279 279 280 281 281 282 283 284 285 286 288 289 290 290 290 291 292 292 292 293 292 292 292 292 292 292 292 292 292 293 294 295 297 298 299 300 302 304 303 298 290 284 281 280 280 280 279 278 277 274 269 267 268 269 270 270 270 268 267 266 265 265 264 263 263
236 235 235 236 235 235 238 239 240 240 240 242 245 249 252 257 263 269 273 275 277 279 280 282 284 285 286 286 287 286 286 287 287 287 288 289 289 290 290 290 291 292 292 293 293 292 291 290 289 288 288 290 291 292 293 294 296 298 299 300 299 294 289 284 283 283 281 279 277 273 269 266 266 266 266 265 263 261 260 259 259 260 260 261 261 262
235 234 236 239 239 241 244 246 246 245 246 247 249 251 254 258 262 265 269 272 277 280 282 282 283 285 286 287 288 288 287 286 285 284 284 285 286 287 288 288 288 289 290 293 293 292 290 289 288 286 285 285 286 286 288 289 291 293 294 295 296 295 293 291 289 287 283 278 273 268 265 264 263 260 258 256 255 255 255 257 258 260 262 263 264 264
237 238 239 239 241 245 248 249 249 250 252 253 255 258 260 262 265 268 272 276 279 281 283 284 284 284 285 285 286 287 287 286 286 285 284 284 284 285 286 286 287 288 289 291 293 293 292 290 289 288 286 284 283 283 284 286 288 289 290 290 291 292 292 291 290 287 281 275 269 266 263 260 255 253 252 254 256 259 261 263 264 265 265 265 264 263
Height
3153 3154 3154 3156 3158 3159 3160 3162 3163 3164 3164 3165 3166 3167 3167 3168 3168 3169 3169 3168 3169 3169 3168 3168 3166 3165 3166 3168 3169 3170 3169 3168 3168 3169 3170 3171 3172 3172 3172 3172 3172 3173 3173 3174 3174 3174 3175 3175 3175 3175 3175 3175 3175 3175 3175 3175 3175 3175 3175 3175 3176 3177 3177 3177 3177 3177 3177 3177 3178 3178 3178 3179 3179 3179 3180 3180 3180 3180 3180 3179 3180 3180 3179 3179 3178 3178
3152 3152 3153 3156 3157 3158 3160 3161 3162 3162 3163 3164 3165 3166 3167 3167 3167 3168 3168 3167 3167 3167 3166 3166 3164 3162 3163 3165 3166 3167 3167 3166 3167 3167 3168 3169 3169 3170 3170 3171 3171 3171 3172 3172 3172 3172 3172 3173 3173 3173 3173 3173 3173 3173 3173 3173 3173 3173 3172 3173 3173 3174 3174 3174 3175 3175 3175 3175 3175 3175 3175 3176 3175 3175 3176 3177 3178 3178 3177 3177 3176 3177 3177 3177 3176 3176
3150 3151 3153 3155 3156 3157 3158 3159 3160 3161 3162 3163 3164 3165 3166 3166 3166 3166 3167 3166 3166 3166 3165 3164 3162 3159 3161 3162 3163 3164 3164 3164 3165 3165 3166 3166 3167 3168 3168 3169 3169 3169 3170 3170 3170 3170 3170 3170 3171 3171 3171 3171 3171 3171 3171 3171 3171 3170 3170 3170 3171 3171 3171 3171 3172 3172 3172 3172 3172 3172 3172 3173 3172 3172 3173 3173 3174 3174 3175 3174 3174 3174 3174 3174 3173 3173
3149 3151 3152 3153 3154 3156 3157 3158 3159 3160 3161 3162 3163 3163 3164 3165 3165 3165 3166 3166 3165 3165 3164 3163 3160 3157 3158 3159 3160 3162 3162 3162 3163 3163 3164 3165 3165 3166 3167 3167 3167 3167 3168 3168 3168 3168 3167 3168 3168 3168 3169 3169 3169 3169 3169 3168 3168 3168 3168 3168 3168 3168 3168 3168 3168 3169 3169 3169 3169 3169 3169 3170 3170 3169 3170 3169 3170 3171 3171 3171 3171 3171 3171 3170 3170 3169
3148 3150 3151 3152 3153 3154 3155 3156 3157 3158 3160 3160 3161 3162 3163 3163 3164 3164 3164 3165 3164 3164 3163 3162 3158 3154 3155 3156 3157 3159 3160 3159 3160 3161 3162 3163 3163 3164 3165 3165 3165 3165 3165 3165 3165 3166 3166 3166 3166 3166 3166 3166 3166 3167 3166 3166 3166 3166 3166 3166 3165 3165 3165 3165 3165 3166 3166 3166 3166 3166 3166 3166 3166 3166 3166 3166 3166 3167 3167 3167 3167 3167 3167 3166 3166 3166
3146 3148 3149 3150 3152 3153 3154 3155 3156 3157 3158 3159 3159 3160 3161 3162 3162 3162 3163 3164 3163 3163 3162 3162 3159 3153 3151 3153 3155 3156 3157 3158 3158 3159 3160 3161 3161 3162 3163 3163 3163 3163 3162 3162 3163 3163 3163 3164 3164 3164 3164 3164 3164 3164 3164 3164 3164 3164 3164 3163 3163 3163 3163 3163 3163 3163 3163 3163 3163 3163 3163 3163 3163 3163 3163 3163 3163 3163 3163 3163 3163 3163 3163 3162 3162 3162
3144 3146 3148 3149 3150 3151 3152 3153 3155 3156 3157 3157 3157 3158 3160 3160 3161 3161 3162 3163 3162 3161 3160 3161 3161 3154 3148 3148 3152 3154 3155 3156 3157 3157 3158 3158 3159 3160 3161 3161 3161 3161 3160 3160 3160 3161 3161 3161 3162 3162 3162 3162 3162 3162 3162 3162 3162 3162 3162 3162 3161 3161 3161 3161 3160 3160 3160 3160 3160 3160 3160 3160 3160 3160 3160 3160 3160 3159 3159 3159 3159 3159 3159 3159 3158 3158
3142 3144 3146 3147 3149 3150 3151 3152 3154 3154 3155 3156 3156 3157 3158 3159 3160 3160 3161 3161 3161 3160 3159 3159 3161 3158 3148 3144 3148 3151 3151 3153 3155 3156 3156 3156 3157 3158 3158 3159 3158 3158 3158 3158 3158 3158 3159 3159 3159 3160 3160 3160 3160 3160 3160 3160 3160 3160 3160 3160 3160 3160 3159 3159 3158 3158 3158 3158 3158 3158 3158 3157 3157 3157 3157 3157 3156 3155 3155 3155 3155 3155 3155 3154 3154 3154
3141 3143 3145 3146 3147 3148 3149 3152 3152 3153 3154 3154 3155 3157 3157 3158 3159 3159 3160 3160 3160 3158 3157 3157 3159 3159 3149 3142 3145 3148 3148 3150 3152 3153 3154 3154 3155 3155 3156 3156 3156 3156 3156 3156 3156 3156 3156 3157 3157 3157 3157 3158 3158 3158 3158 3158 3158 3158 3158 3158 3158 3157 3157 3157 3156 3156 3156 3156 3155 3155 3155 3155 3154 3154 3154 3154 3153 3153 3152 3151 3151 3151 3151 3150 3150 3149
3140 3142 3143 3144 3146 3147 3148 3150 3151 3152 3153 3153 3155 3155 3156 3158 3157 3159 3159 3158 3159 3156 3153 3155 3157 3156 3147 3140 3143 3145 3146 3148 3149 3150 3151 3152 3153 3153 3154 3154 3154 3154 3154 3155 3155 3154 3154 3154 3155 3155 3155 3156 3156 3156 3156 3156 3156 3156 3156 3156 3155 3155 3155 3154 3154 3153 3153 3153 3152 3152 3152 3152 3152 3151 3151 3151 3151 3150 3149 3148 3148 3148 3147 3146 3146 3145
3138 3140 3142 3143 3144 3145 3147 3148 3149 3151 3151 3152 3154 3154 3156 3157 3157 3158 3157 3158 3159 3153 3150 3153 3155 3154 3146 3138 3139 3143 3144 3146 3147 3149 3149 3149 3150 3151 3152 3153 3152 3152 3152 3153 3153 3152 3152 3152 3152 3153 3153 3154 3154 3154 3154 3154 3154 3154 3153 3153 3153 3152 3152 3152 3151 3151 3151 3150 3150 3150 3149 3149 3149 3148 3148 3148 3148 3147 3146 3146 3145 3144 3144 3143 3142 3141
3136 3138 3140 3141 3142 3143 3145 3146 3147 3149 3149 3151 3152 3153 3155 3156 3157 3157 3156 3157 3157 3150 3148 3150 3152 3152 3144 3135 3137 3142 3143 3144 3146 3147 3147 3147 3148 3149 3150 3151 3151 3151 3150 3151 3150 3150 3150 3150 3150 3150 3151 3151 3151 3151 3152 3151 3151 3151 3151 3151 3150 3150 3149 3149 3149 3148 3148 3148 3147 3147 3147 3146 3146 3145 3145 3145 3145 3144 3143 3143 3142 3141 3140 3139 3138 3136
3134 3136 3137 3139 3140 3141 3142 3144 3145 3147 3148 3149 3151 3153 3155 3156 3157 3156 3155 3156 3153 3148 3148 3149 3151 3147 3135 3130 3136 3140 3141 3143 3144 3145 3145 3145 3146 3147 3148 3149 3149 3148 3148 3148 3148 3147 3147 3147 3147 3148 3148 3149 3149 3149 3149 3149 3148 3148 3148 3148 3147 3147 3147 3146 3146 3146 3145 3145 3144 3144 3144 3143 3143 3143 3142 3142 3141 3141 3140 3139 3138 3137 3136 3135 3134 3133
3132 3133 3134 3135 3136 3138 3139 3141 3143 3144 3146 3147 3148 3150 3152 3154 3156 3155 3154 3153 3150 3146 3146 3148 3150 3141 3129 3129 3134 3135 3138 3141 3141 3142 3142 3143 3144 3145 3146 3147 3146 3146 3145 3145 3145 3145 3145 3145 3145 3145 3146 3146 3146 3146 3146 3145 3145 3145 3145 3145 3144 3144 3144 3143 3143 3143 3142 3142 3141 3141 3141 3140 3140 3140 3139 3139 3138 3138 3137 3136 3135 3134 3133 3132 3130 3129
3129 3129 3130 3132 3134 3135 3137 3138 3141 3143 3144 3145 3146 3147 3147 3148 3150 3150 3150 3150 3146 3145 3145 3147 3145 3135 3128 3130 3131 3131 3135 3138 3139 3140 3141 3141 3143 3144 3144 3145 3144 3144 3144 3143 3143 3143 3142 3142 3142 3143 3143 3144 3144 3144 3143 3142 3142 3142 3142 3142 3142 3141 3141 3141 3140 3140 3139 3139 3139 3138 3138 3137 3137 3137 3136 3136 3136 3135 3134 3132 3131 3130 3129 3128 3127 3125
3125 3126 3127 3130 3131 3133 3135 3137 3139 3141 3142 3142 3144 3145 3143 3143 3145 3146 3147 3145 3145 3145 3144 3142 3137 3128 3126 3129 3129 3132 3134 3136 3138 3139 3140 3141 3141 3142 3143 3143 3142 3141 3141 3141 3141 3140 3140 3140 3140 3140 3141 3141 3141 3140 3140 3140 3139 3139 3139 3139 3139 3138 3138 3138 3138 3137 3137 3136 3136 3135 3135 3135 3134 3134 3133 3133 3132 3131 3130 3129 3128 3127 3125 3124 3123 3121
3123 3124 3125 3128 3129 3131 3133 3134 3136 3137 3138 3139 3139 3138 3139 3141 3144 3145 3145 3144 3146 3145 3139 3135 3130 3125 3126 3125 3125 3129 3131 3133 3136 3136 3137 3139 3139 3140 3141 3140 3139 3139 3139 3139 3138 3138 3138 3137 3138 3138 3138 3137 3137 3137 3136 3136 3136 3136 3136 3136 3136 3135 3135 3135 3135 3135 3134 3133 3133 3132 3132 3132 3131 3131 3130 3129 3129 3128 3126 3125 3123 3122 3121 3120 3118 3117
3121 3122 3123 3124 3126 3127 3130 3131 3132 3133 3134 3135 3134 3135 3138 3141 3142 3144 3144 3143 3145 3144 3136 3130 3126 3125 3126 3123 3121 3126 3128 3129 3132 3133 3135 3137 3138 3138 3137 3137 3137 3137 3137 3136 3136 3136 3136 3136 3136 3135 3135 3135 3134 3134 3133 3133 3133 3133 3133 3133 3133 3133 3132 3132 3132 3131 3131 3131 3130 3129 3129 3128 3128 3127 3127 3126 3125 3124 3122 3121 3119 3118 3116 3115 3114 3112
3118 3119 3120 3121 3123 3125 3127 3128 3128 3129 3130 3131 3132 3134 3137 3138 3139 3141 3142 3141 3143 3143 3135 3127 3125 3123 3120 3118 3120 3125 3127 3127 3129 3131 3133 3134 3133 3133 3133 3134 3134 3134 3134 3134 3134 3134 3134 3134 3134 3133 3133 3133 3132 3132 3131 3131 3130 3130 3130 3130 3130 3130 3129 3129 3129 3128 3128 3128 3127 3126 3125 3125 3124 3124 3123 3122 3121 3120 3118 3117 3115 3113 3112 3110 3109 3108
3116 3117 3117 3118 3120 3122 3123 3123 3123 3123 3126 3129 3131 3133 3134 3134 3136 3136 3138 3137 3138 3140 3135 3127 3124 3117 3112 3114 3118 3122 3124 3125 3125 3127 3129 3129 3129 3129 3131 3131 3132 3132 3132 3132 3132 3132 3132 3132 3132 3131 3131 3130 3129 3129 3128 3128 3128 3127 3127 3127 3126 3126 3126 3126 3126 3125 3124 3124 3124 3123 3122 3121 3120 3119 3118 3117 3116 3115 3114 3112 3111 3109 3108 3106 3105 3103
3114 3114 3114 3115 3117 3118 3118 3118 3119 3121 3124 3126 3127 3129 3130 3131 3133 3133 3134 3134 3134 3136 3135 3130 3123 3110 3107 3115 3118 3119 3121 3121 3122 3124 3125 3126 3126 3127 3128 3129 3129 3129 3129 3129 3129 3129 3129 3129 3129 3128 3127 3126 3125 3125 3125 3125 3124 3124 3123 3123 3122 3122 3122 3123 3122 3121 3121 3121 3120 3119 3118 3117 3116 3115 3113 3112 3111 3110 3110 3108 3107 3105 3104 3103 3101 3099
3110 3111 3111 3112 3113 3113 3114 3117 3120 3121 3122 3122 3122 3124 3125 3126 3129 3130 3131 3130 3131 3132 3130 3130 3123 3105 3103 3114 3117 3117 3120 3120 3120 3122 3122 3124 3124 3125 3126 3126 3126 3126 3126 3127 3126 3126 3126 3125 3125 3124 3123 3123 3122 3121 3121 3121 3121 3120 3120 3119 3118 3118 3119 3119 3118 3117 3117 3117 3116 3116 3115 3114 3113 3111 3109 3108 3106 3105 3104 3103 3102 3101 3099 3098 3097 3095
3107 3108 3109 3109 3109 3111 3114 3116 3118 3118 3119 3120 3120 3120 3121 3123 3123 3125 3126 3126 3128 3129 3127 3130 3123 3102 3098 3111 3114 3114 3118 3119 3120 3121 3121 3123 3123 3124 3125 3124 3124 3124 3123 3123 3123 3123 3122 3121 3121 3120 3119 3119 3118 3118 3118 3117 3117 3117 3116 3115 3114 3115 3115 3115 3114 3113 3112 3112 3112 3112 3111 3111 3110 3108 3106 3104 3102 3101 3100 3098 3097 3096 3094 3093 3092 3091
3104 3105 3106 3107 3107 3109 3111 3113 3114 3115 3116 3116 3116 3117 3118 3119 3120 3121 3124 3124 3125 3125 3124 3128 3122 3100 3094 3107 3111 3111 3115 3117 3118 3120 3120 3122 3122 3122 3122 3122 3121 3121 3119 3119 3119 3119 3118 3117 3118 3117 3116 3116 3115 3114 3114 3113 3113 3112 3112 3111 3111 3111 3111 3110 3109 3109 3108 3108 3107 3107 3107 3106 3105 3104 3102 3100 3098 3096 3095 3094 3092 3091 3089 3088 3087 3086
3100 3101 3102 3104 3106 3107 3108 3109 3109 3110 3111 3111 3112 3114 3114 3116 3119 3120 3122 3123 3122 3121 3121 3122 3115 3099 3094 3103 3106 3107 3111 3113 3114 3117 3117 3118 3118 3118 3118 3117 3117 3117 3116 3116 3116 3115 3115 3114 3114 3114 3113 3113 3112 3111 3110 3109 3109 3109 3108 3108 3107 3107 3106 3105 3105 3104 3103 3103 3102 3102 3102 3101 3100 3099 3098 3096 3094 3092 3090 3089 3087 3086 3084 3083 3082 3081
3096 3096 3097 3099 3100 3102 3102 3102 3103 3104 3107 3108 3108 3110 3111 3113 3115 3116 3118 3120 3117 3115 3115 3113 3108 3099 3094 3099 3103 3105 3107 3108 3110 3112 3113 3113 3113 3113 3113 3113 3113 3113 3113 3113 3112 3112 3111 3111 3111 3110 3109 3109 3107 3106 3106 3105 3105 3105 3105 3105 3104 3103 3102 3101 3100 3099 3099 3098 3097 3096 3096 3095 3095 3094 3092 3090 3088 3087 3085 3084 3082 3081 3079 3078 3076 3076
3092 3093 3094 3094 3094 3095 3096 3097 3099 3100 3103 3104 3104 3107 3108 3110 3111 3112 3114 3112 3110 3110 3108 3105 3105 3100 3093 3093 3098 3103 3104 3105 3106 3107 3108 3109 3109 3108 3108 3109 3109 3109 3109 3108 3108 3108 3107 3107 3106 3106 3104 3103 3102 3101 3100 3099 3098 3098 3098 3099 3099 3098 3097 3097 3096 3095 3093 3092 3091 3091 3091 3090 3089 3088 3086 3084 3083 3081 3080 3078 3077 3076 3074 3072 3071 3070
3089 3089 3090 3091 3091 3093 3095 3096 3097 3097 3098 3100 3101 3103 3104 3106 3107 3108 3106 3104 3106 3107 3101 3098 3102 3100 3091 3088 3092 3098 3102 3102 3103 3103 3102 3103 3104 3104 3105 3105 3104 3104 3104 3104 3103 3102 3102 3101 3101 3100 3099 3098 3096 3095 3093 3092 3091 3091 3091 3092 3093 3093 3092 3092 3091 3089 3088 3086 3085 3085 3085 3085 3083 3081 3080 3078 3077 3076 3075 3073 3072 3070 3069 3067 3066 3065
3086 3086 3087 3088 3089 3091 3093 3094 3094 3095 3095 3097 3098 3099 3100 3102 3102 3102 3100 3100 3102 3101 3095 3095 3099 3097 3092 3088 3088 3092 3097 3099 3099 3098 3097 3098 3099 3101 3101 3100 3099 3099 3098 3098 3098 3097 3096 3095 3094 3093 3092 3091 3090 3089 3087 3086 3085 3084 3083 3084 3085 3085 3085 3085 3084 3082 3081 3079 3078 3079 3079 3078 3077 3076 3074 3072 3071 3070 3069 3068 3066 3065 3064 3062 3060 3059
3083 3083 3085 3087 3087 3088 3089 3091 3092 3092 3093 3094 3095 3096 3097 3098 3098 3097 3096 3096 3097 3096 3093 3094 3094 3090 3089 3088 3086 3088 3092 3094 3095 3095 3095 3094 3095 3096 3096 3095 3094 3093 3093 3093 3093 3092 3091 3089 3088 3087 3086 3085 3084 3082 3081 3080 3079 3078 3077 3077 3077 3076 3077 3076 3075 3074 3073 3072 3072 3073 3073 3071 3071 3069 3068 3066 3066 3064 3063 3062 3060 3059 3058 3057 3055 3053
3079 3081 3082 3084 3085 3084 3085 3087 3088 3089 3089 3090 3091 3093 3094 3094 3093 3092 3091 3091 3092 3091 3090 3091 3089 3083 3083 3087 3088 3087 3088 3090 3092 3093 3092 3092 3091 3091 3091 3091 3090 3089 3088 3088 3087 3086 3085 3084 3083 3082 3081 3080 3078 3077 3076 3074 3073 3073 3072 3071 3070 3070 3069 3068 3067 3066 3065 3065 3066 3066 3065 3064 3064 3062 3061 3060 3060 3058 3057 3056 3054 3053 3052 3051 3049 3048
3075 3077 3078 3080 3081 3079 3079 3082 3083 3084 3085 3085 3085 3085 3086 3086 3086 3086 3087 3088 3088 3087 3086 3087 3084 3080 3081 3086 3088 3086 3084 3085 3088 3089 3087 3087 3087 3087 3086 3085 3085 3084 3083 3082 3081 3080 3079 3078 3077 3077 3076 3075 3074 3072 3071 3070 3069 3068 3067 3067 3066 3065 3064 3062 3061 3060 3059 3059 3059 3059 3058 3057 3056 3055 3054 3054 3053 3052 3051 3049 3048 3047 3046 3044 3043 3041
3071 3072 3073 3075 3076 3074 3075 3077 3078 3081 3081 3079 3076 3075 3078 3080 3080 3081 3082 3083 3083 3082 3082 3081 3079 3080 3083 3085 3084 3082 3081 3082 3083 3083 3082 3081 3081 3081 3081 3080 3079 3078 3077 3076 3075 3074 3073 3072 3072 3072 3071 3070 3069 3068 3067 3065 3064 3063 3063 3062 3061 3060 3059 3058 3056 3055 3054 3053 3053 3052 3051 3050 3049 3048 3048 3048 3046 3045 3044 3043 3042 3041 3040 3038 3037 3035
3067 3068 3069 3071 3071 3071 3071 3073 3076 3077 3074 3070 3068 3070 3073 3075 3075 3075 3074 3075 3077 3078 3078 3077 3078 3080 3081 3080 3079 3078 3078 3079 3077 3076 3076 3075 3074 3075 3076 3074 3072 3071 3071 3071 3070 3070 3069 3068 3068 3067 3066 3065 3064 3063 3062 3061 3060 3058 3058 3057 3056 3055 3054 3053 3051 3050 3049 3048 3047 3046 3045 3044 3042 3042 3041 3041 3040 3038 3038 3037 3036 3035 3034 3032 3030 3029
3062 3064 3066 3067 3067 3068 3069 3071 3072 3068 3064 3063 3065 3067 3068 3068 3069 3069 3068 3068 3072 3074 3075 3075 3076 3076 3076 3076 3076 3075 3073 3072 3072 3071 3071 3069 3069 3071 3070 3067 3065 3065 3065 3065 3064 3064 3064 3064 3063 3062 3061 3060 3059 3058 3056 3055 3055 3053 3052 3051 3050 3049 3048 3047 3046 3045 3043 3042 3041 3040 3039 3037 3036 3036 3035 3034 3033 3032 3031 3031 3030 3029 3027 3026 3024 3023
3059 3060 3061 3062 3063 3064 3065 3066 3064 3060 3059 3061 3062 3062 3062 3063 3064 3064 3062 3063 3067 3069 3070 3070 3071 3071 3072 3072 3071 3069 3067 3066 3067 3068 3065 3063 3065 3067 3064 3061 3060 3060 3060 3059 3058 3058 3058 3057 3057 3056 3055 3054 3053 3052 3051 3050 3049 3048 3046 3046 3045 3044 3043 3041 3040 3039 3038 3036 3035 3034 3033 3032 3030 3029 3028 3027 3026 3026 3025 3025 3024 3023 3021 3020 3019 3017
3057 3057 3058 3059 3059 3060 3060 3059 3058 3058 3058 3056 3055 3057 3058 3059 3059 3060 3060 3060 3062 3064 3064 3065 3065 3066 3067 3066 3065 3063 3062 3061 3062 3063 3061 3059 3062 3062 3059 3057 3056 3054 3054 3054 3053 3052 3052 3051 3051 3050 3049 3048 3047 3047 3045 3044 3043 3041 3040 3040 3039 3038 3037 3035 3034 3033 3032 3031 3029 3028 3027 3025 3024 3023 3022 3021 3020 3019 3019 3018 3018 3017 3015 3014 3013 3012
3053 3054 3055 3057 3056 3056 3057 3056 3056 3056 3052 3048 3050 3054 3056 3056 3057 3058 3058 3057 3057 3058 3058 3058 3059 3059 3059 3059 3058 3057 3057 3056 3056 3057 3056 3055 3056 3056 3054 3054 3052 3050 3050 3049 3047 3047 3046 3046 3046 3045 3044 3042 3041 3041 3039 3038 3036 3035 3034 3034 3033 3031 3030 3029 3028 3027 3026 3025 3023 3022 3021 3019 3018 3017 3016 3015 3014 3013 3013 3012 3011 3011 3010 3009 3008 3007
3048 3050 3052 3054 3053 3054 3054 3052 3051 3049 3045 3044 3048 3052 3052 3052 3053 3055 3054 3052 3052 3053 3052 3052 3053 3053 3053 3053 3053 3053 3053 3051 3050 3051 3051 3051 3051 3051 3049 3048 3047 3047 3046 3045 3043 3041 3040 3039 3039 3039 3038 3037 3036 3035 3033 3032 3030 3028 3028 3027 3026 3025 3024 3023 3022 3021 3019 3019 3017 3016 3015 3013 3012 3011 3010 3009 3008 3008 3007 3006 3005 3004 3004 3003 3002 3001
3043 3045 3047 3048 3048 3048 3049 3048 3046 3043 3041 3042 3046 3048 3048 3048 3050 3051 3050 3047 3048 3049 3048 3047 3048 3049 3049 3049 3049 3049 3049 3047 3045 3046 3046 3045 3046 3046 3045 3043 3042 3041 3040 3040 3038 3036 3034 3033 3032 3031 3031 3030 3029 3028 3027 3025 3023 3022 3021 3021 3019 3018 3018 3016 3015 3014 3013 3012 3011 3010 3009 3007 3006 3005 3004 3003 3003 3002 3001 3000 3000 2999 2998 2997 2996 2995
3037 3039 3040 3041 3042 3044 3044 3044 3041 3038 3037 3040 3042 3043 3044 3045 3046 3045 3044 3044 3046 3046 3044 3044 3045 3046 3046 3046 3045 3046 3045 3044 3042 3041 3041 3040 3041 3041 3041 3040 3038 3037 3036 3034 3033 3030 3029 3028 3027 3025 3024 3022 3021 3021 3020 3018 3017 3016 3015 3013 3012 3012 3011 3009 3008 3007 3006 3006 3005 3003 3002 3001 3000 2999 2998 2997 2997 2996 2995 2995 2994 2993 2992 2991 2990 2989
3032 3034 3035 3036 3038 3039 3039 3039 3038 3035 3034 3037 3038 3038 3038 3039 3039 3038 3038 3041 3043 3042 3042 3041 3040 3041 3042 3042 3041 3041 3040 3040 3039 3037 3037 3036 3035 3035 3035 3034 3033 3032 3031 3030 3029 3027 3024 3023 3022 3021 3019 3017 3015 3014 3013 3012 3011 3010 3008 3007 3006 3005 3004 3003 3002 3000 2999 2998 2997 2997 2996 2995 2994 2993 2992 2991 2990 2990 2989 2988 2988 2987 2986 2985 2984 2983
3027 3029 3030 3030 3031 3033 3035 3036 3035 3031 3030 3032 3033 3033 3033 3033 3032 3032 3034 3036 3038 3038 3039 3038 3036 3035 3035 3035 3035 3035 3035 3035 3035 3034 3033 3032 3031 3030 3029 3028 3027 3026 3025 3024 3023 3022 3020 3018 3017 3015 3014 3013 3011 3009 3007 3005 3004 3003 3002 3001 3000 2998 2997 2996 2995 2994 2993 2992 2991 2990 2989 2988 2987 2986 2986 2985 2984 2984 2983 2982 2981 2980 2979 2978 2977 2977
3022 3023 3023 3024 3026 3027 3028 3028 3027 3026 3027 3029 3029 3029 3029 3028 3028 3029 3030 3032 3033 3034 3034 3034 3033 3031 3030 3030 3030 3030 3030 3030 3030 3029 3028 3027 3026 3025 3024 3023 3022 3021 3020 3018 3017 3016 3014 3013 3011 3010 3010 3008 3006 3004 3002 3000 2998 2997 2996 2994 2993 2992 2991 2990 2989 2988 2987 2986 2984 2984 2983 2982 2981 2980 2980 2979 2978 2977 2977 2976 2975 2974 2973 2972 2971 2971
3017 3018 3019 3020 3021 3022 3022 3022 3023 3024 3025 3026 3026 3025 3025 3025 3025 3025 3026 3027 3028 3028 3029 3029 3029 3027 3026 3026 3025 3026 3025 3025 3024 3023 3022 3021 3020 3019 3018 3018 3017 3016 3015 3013 3011 3010 3009 3007 3006 3004 3004 3003 3001 2999 2997 2995 2992 2991 2990 2988 2987 2986 2985 2984 2983 2982 2981 2980 2979 2978 2977 2976 2975 2975 2974 2973 2972 2971 2971 2970 2969 2968 2967 2966 2966 2965
3014 3015 3016 3017 3018 3019 3019 3020 3021 3022 3022 3023 3023 3023 3022 3022 3022 3021 3021 3021 3022 3023 3024 3024 3023 3023 3022 3021 3021 3021 3020 3019 3018 3017 3016 3015 3014 3014 3013 3012 3012 3011 3009 3008 3007 3005 3003 3002 3000 2999 2997 2997 2995 2993 2991 2989 2987 2985 2984 2982 2981 2980 2979 2978 2977 2976 2975 2974 2973 2972 2971 2970 2970 2969 2968 2967 2966 2965 2965 2964 2963 2962 2961 2960 2960 2959
3010 3012 3013 3013 3014 3015 3014 3015 3017 3018 3018 3019 3020 3020 3020 3019 3018 3017 3016 3016 3017 3018 3018 3018 3018 3018 3018 3017 3016 3015 3015 3014 3013 3011 3011 3010 3008 3008 3007 3006 3005 3004 3003 3002 3001 2999 2997 2996 2995 2993 2991 2990 2989 2987 2985 2983 2981 2979 2978 2976 2974 2973 2972 2971 2970 2969 2968 2968 2967 2966 2965 2964 2964 2963 2962 2961 2960 2959 2959 2958 2957 2956 2955 2955 2954 2954
3006 3007 3008 3008 3009 3009 3009 3011 3013 3013 3013 3015 3017 3017 3017 3015 3013 3012 3012 3012 3012 3013 3013 3013 3013 3013 3013 3013 3012 3010 3009 3010 3008 3006 3005 3004 3003 3002 3002 3000 2999 2998 2997 2996 2994 2993 2992 2990 2988 2987 2985 2984 2983 2981 2979 2978 2976 2974 2972 2970 2968 2967 2965 2964 2963 2962 2961 2961 2960 2960 2959 2958 2958 2957 2956 2955 2955 2954 2953 2952 2952 2951 2950 2950 2949 2949
3002 3002 3002 3003 3004 3004 3005 3007 3009 3009 3009 3011 3013 3013 3013 3011 3009 3008 3008 3007 3008 3008 3008 3008 3009 3008 3008 3008 3006 3005 3004 3004 3004 3002 3000 2999 2998 2997 2996 2995 2993 2992 2991 2989 2988 2987 2985 2984 2982 2981 2979 2978 2977 2975 2973 2972 2970 2968 2966 2964 2963 2961 2960 2958 2957 2956 2955 2955 2954 2953 2953 2952 2951 2951 2950 2949 2948 2948 2947 2947 2946 2946 2945 2945 2945 2945
2996 2996 2997 2998 2998 2999 3001 3003 3004 3004 3005 3006 3008 3008 3007 3005 3004 3004 3004 3004 3004 3003 3003 3003 3003 3003 3003 3002 3001 2999 2997 2997 2997 2996 2995 2994 2993 2992 2991 2990 2988 2987 2986 2984 2982 2981 2979 2978 2976 2974 2973 2972 2970 2969 2967 2966 2964 2962 2960 2958 2957 2955 2954 2952 2951 2951 2950 2949 2949 2948 2947 2946 2945 2944 2944 2943 2942 2942 2942 2942 2942 2941 2941 2941 2941 2941
2990 2991 2994 2994 2993 2995 2998 2999 2999 2999 2999 3001 3002 3001 3000 3000 3000 3001 3000 2999 2999 2999 2998 2998 2997 2996 2997 2997 2996 2993 2991 2991 2991 2989 2988 2989 2988 2987 2986 2985 2983 2981 2981 2979 2977 2975 2974 2972 2970 2968 2967 2965 2964 2962 2961 2959 2958 2956 2954 2952 2951 2950 2948 2946 2946 2945 2945 2944 2943 2942 2941 2940 2939 2939 2939 2938 2939 2939 2939 2938 2938 2937 2937 2937 2937 2936